Location: Branche des Alpilles
(43.6087°N, 4.6976°E)
Time: 12:28:34
(UTC+00:00)

CZ-4 R/B - Pass Details

Date: 30 November 2020
Orbit: 532 x 598 km, 97.7° (Epoch: 25 January)

Event Time Altitude Azimuth Distance (km) Brightness Sun altitude
Rises 19:09:06 0° 200° (SSW) 2,704 5.1 -32.5°
Enters shadow 19:10:20 - 206° (SSW) 2,255 4.7 -32.7°
Exits shadow 19:16:26 16° 301° (WNW) 1,518 4.1 -33.8°
Drops below altitude 10° 19:17:44 10° 317° (NW) 1,871 4.5 -34.1°
Sets 19:20:20 0° 333° (NNW) 2,788 5.2 -34.5°
